OBJECT E, 51950

Orbit data source: Space-Track

You're viewing an Uncataloged Satellite

Recently launched and/or uncataloged satellites may have evolving metadata. Metadata may include but not limited to: Owner, Maufacturer, Bus, Motor, and Mission.

OBJECT E, 51950 is a Chinese satellite in LEO that was launched on Sat, 05 Mar 2022 UTC via a CHANG ZHENG 2C launch vehicle from the Xichang Space Center, China (XSC). Unknown objects in Earth's orbit typically refer to objects detected orbiting the Earth but have not yet been identified or cataloged. These objects could be anything from previously untracked satellites, spent rocket stages, debris from satellite collisions, or even natural meteoroids temporarily captured by Earth's gravity.

Loading next visibility...
Identifier
51950, 2022-023E
Orbit
LEO
Country
Flag of CNCN / PRC
Related business
None
Manufacturer
Unknown
Mission
Operational Commercial Communications
Bus & Motor
Unknown
Mass
Unknown
Launch date (UTC)
2022-03-05 (4 years ago)
Launch vehicle
CHANG ZHENG 2C
Launch site
Xichang Space Center, China (XSC)
Object type
Unknown
Shape & HBR
Box + 1 Pan, 2.5 m
Radar Cross Section
3.313 m², Large (>1 m²)

Expand to show TLE details & history
Last TLE update: 21 hours ago

TLE from 21 hours ago
0 OBJECT E
1 51950U 22023E   26172.55589450 -.00000029  00000-0  83782-4 0  9992
2 51950  63.4617 302.0693 0160102 348.5846  11.1571 13.56287664222628
Epoch: 2026-06-21T13:20Z
TLE epoch observation values (Epoch: 2026-06-21T13:20:29.284Z)
Latitude
-0.00006°
Longitude
-167.80722°
Altitude
934.391 km
Speed
7.443 km/s
True Right ascension
20h 08m 16s
True Declination
0° 00' 00"
Sunlit
Object was in full shadow at epoch
Visualization orbit readout
Latitude
Unknown
Longitude
Unknown
Altitude
Unknown
Speed
Unknown
Apparent Right ascension
Unknown
Apparent Declination
Unknown
Sunlit
N/A
Visualization observer readout
Local Sidereal Time
21:30:20
Azimuth
Unknown
Elevation
Unknown
Doppler factor
Unknown
Orbital elements
Apogee altitude
1,166.924 km
Perigee altitude
929.135 km
Semi-major axis
7,426.166 km
Eccentricity
0.01601
Inclination
63.4617°
RAAN
302.0693°
Arg. of periapsis
348.5846°
True anomaly
11.5192°
Mean anomaly
11.1571°
Eccentric anomaly
11.33743°
Mean motion
3.39153 °/min
Orbital period
106.15 mins
BSTAR
0.000083782
Loading maneuver chart data...
Computing Atmospheric mass density...
Loading historical data...
Loading historical data...
Loading historical data...
Loading historical data...
Loading historical data...
Loading historical data...
Loading historical data...

Documentation

Showing up to 5 results
|